Total_Precipitation_Accumulation
0.02 0.06 0.22 0.40 0.68 1.11 1.06 0.59 0.38 0.34 0.36 0.38 0.48 0.48 0.41 0.41 0.57 0.93 0.31 0.06 0.03 0.01 0.02 0.06 0.08 0.07 0.08 0.10 0.14 0.15 0.14 0.16 0.16 0.15 0.14 0.15 0.16 0.14 0.13 0.16 0.18 0.20 0.21 0.22 0.22 0.21 0.21 0.24 0.26
0.02 0.07 0.19 0.44 0.95 1.44 1.11 0.52 0.35 0.38 0.39 0.39 0.43 0.51 0.56 0.38 0.25 0.20 0.12 0.06 0.04 0.02 0.02 0.04 0.08 0.08 0.07 0.09 0.12 0.14 0.15 0.15 0.15 0.14 0.15 0.16 0.19 0.22 0.21 0.20 0.21 0.23 0.24 0.23 0.21 0.19 0.20 0.21 0.26
0.03 0.08 0.19 0.51 0.82 1.03 0.80 0.37 0.32 0.31 0.41 0.46 0.47 0.48 0.52 0.33 0.21 0.13 0.12 0.09 0.06 0.03 0.04 0.08 0.10 0.08 0.08 0.09 0.12 0.14 0.14 0.13 0.14 0.14 0.16 0.16 0.19 0.23 0.27 0.24 0.23 0.25 0.27 0.23 0.20 0.18 0.18 0.20 0.25
0.03 0.08 0.22 0.45 0.45 0.43 0.41 0.29 0.27 0.26 0.35 0.43 0.54 0.54 0.43 0.27 0.24 0.20 0.13 0.12 0.06 0.05 0.06 0.08 0.11 0.09 0.08 0.08 0.10 0.14 0.14 0.13 0.16 0.16 0.17 0.18 0.20 0.23 0.24 0.21 0.22 0.27 0.25 0.24 0.21 0.17 0.18 0.22 0.25
0.03 0.09 0.29 0.37 0.30 0.32 0.36 0.29 0.27 0.23 0.33 0.45 0.49 0.57 0.55 0.36 0.26 0.19 0.14 0.15 0.10 0.07 0.06 0.08 0.11 0.10 0.09 0.09 0.11 0.13 0.13 0.13 0.15 0.16 0.17 0.19 0.22 0.24 0.23 0.22 0.22 0.26 0.25 0.25 0.21 0.18 0.21 0.22 0.26
0.03 0.13 0.28 0.25 0.20 0.20 0.24 0.21 0.24 0.26 0.35 0.57 0.50 0.57 0.71 0.53 0.37 0.28 0.18 0.18 0.15 0.11 0.07 0.09 0.14 0.15 0.13 0.13 0.14 0.14 0.13 0.14 0.16 0.16 0.16 0.18 0.21 0.22 0.23 0.23 0.23 0.26 0.28 0.25 0.20 0.22 0.25 0.27 0.32
0.02 0.09 0.18 0.17 0.14 0.15 0.17 0.20 0.25 0.24 0.40 0.69 0.55 0.69 0.95 0.87 0.52 0.40 0.38 0.30 0.26 0.23 0.20 0.15 0.15 0.17 0.18 0.19 0.18 0.18 0.16 0.16 0.17 0.18 0.18 0.20 0.21 0.21 0.22 0.28 0.30 0.30 0.30 0.28 0.23 0.20 0.21 0.24 0.31
0.01 0.03 0.07 0.11 0.12 0.11 0.11 0.15 0.19 0.33 0.43 0.57 0.48 0.71 1.19 1.04 0.65 0.59 0.66 0.59 0.63 0.57 0.43 0.27 0.23 0.24 0.20 0.17 0.20 0.22 0.20 0.19 0.19 0.19 0.19 0.21 0.23 0.25 0.27 0.30 0.36 0.39 0.40 0.36 0.31 0.26 0.25 0.29 0.35
0.02 0.02 0.05 0.07 0.08 0.08 0.07 0.11 0.16 0.28 0.43 0.59 0.64 0.70 0.92 0.81 0.78 0.84 0.93 0.98 0.98 1.06 0.87 0.52 0.37 0.33 0.31 0.25 0.24 0.29 0.30 0.27 0.27 0.30 0.30 0.36 0.45 0.49 0.57 0.57 0.60 0.60 0.56 0.54 0.51 0.49 0.45 0.43 0.38
0.01 0.01 0.03 0.04 0.04 0.06 0.06 0.12 0.20 0.33 0.58 0.86 0.89 0.89 1.06 0.99 0.81 0.85 0.89 1.03 1.12 1.23 1.10 0.80 0.68 0.50 0.41 0.35 0.43 0.55 0.52 0.54 0.50 0.60 0.62 0.79 1.01 0.95 0.75 0.86 1.05 1.06 1.06 0.99 0.97 0.98 0.81 0.62 0.58
0.00 0.01 0.01 0.02 0.02 0.04 0.06 0.11 0.19 0.36 0.72 1.18 1.44 1.47 1.33 1.18 1.09 1.05 1.00 1.16 1.36 1.38 1.22 0.98 0.93 0.82 0.64 0.68 0.61 0.69 0.81 0.93 0.82 0.81 0.90 1.21 1.17 0.93 0.89 0.99 1.21 1.43 1.40 1.32 1.49 1.57 1.24 1.18 1.41
0.00 0.00 0.00 0.01 0.01 0.03 0.07 0.10 0.19 0.37 0.71 1.00 1.24 1.53 1.65 1.49 1.51 1.46 1.41 1.64 1.82 1.70 1.51 1.30 1.14 1.00 0.93 0.88 0.80 0.80 0.80 0.96 0.96 1.09 1.12 1.30 1.49 1.40 1.35 1.42 1.47 1.60 1.72 2.00 2.00 2.06 1.88 1.78 1.71
0.00 0.00 0.01 0.01 0.02 0.03 0.06 0.15 0.26 0.40 0.54 0.76 0.93 1.09 1.36 1.70 2.01 2.09 2.15 2.55 2.39 2.20 2.05 1.85 1.52 1.43 1.33 1.33 1.28 1.10 1.10 1.20 1.30 1.44 1.44 1.42 1.62 1.64 1.70 1.72 1.77 1.68 1.79 1.99 2.23 2.17 2.24 2.30 2.11
0.00 0.00 0.01 0.02 0.02 0.03 0.08 0.21 0.26 0.43 0.52 0.67 0.89 1.09 1.62 2.20 2.36 2.61 2.96 3.27 3.11 2.87 2.86 2.63 2.28 2.20 2.04 1.81 1.65 1.58 1.47 1.55 1.59 1.67 1.64 1.66 1.87 2.00 1.95 1.79 1.81 1.76 1.80 1.89 2.08 2.20 2.51 2.47 2.38
0.00 0.02 0.03 0.04 0.03 0.05 0.09 0.26 0.35 0.53 0.62 0.75 1.11 1.30 1.75 2.09 2.35 2.48 2.92 3.27 3.21 3.13 3.28 3.26 3.09 3.05 2.87 2.57 2.20 1.98 1.93 1.83 1.94 2.02 1.96 2.00 2.06 2.19 2.11 1.96 1.80 1.86 1.92 2.02 2.06 2.20 2.47 2.45 2.33
0.02 0.05 0.08 0.08 0.08 0.10 0.17 0.53 0.50 0.61 0.82 1.08 1.32 1.47 1.71 1.87 2.23 2.36 2.70 3.16 3.37 3.40 3.58 3.77 3.73 3.69 3.43 3.13 2.79 2.50 2.33 2.24 2.23 2.20 2.15 2.07 2.20 2.23 2.19 1.99 1.79 1.97 1.97 2.04 2.20 2.29 2.44 2.57 2.59
0.04 0.06 0.13 0.18 0.16 0.13 0.28 0.71 0.73 0.83 0.98 1.11 1.23 1.47 1.63 1.63 1.98 2.40 2.70 3.22 3.58 3.72 4.09 4.44 4.50 4.39 4.00 3.56 3.30 3.15 2.92 2.67 2.47 2.42 2.26 2.17 2.22 2.15 2.19 1.97 1.88 2.03 2.18 2.16 1.99 2.31 2.55 2.56 2.59
0.04 0.06 0.10 0.16 0.17 0.17 0.34 0.55 0.70 0.88 1.04 1.16 1.18 1.30 1.35 1.49 1.95 2.49 2.81 3.12 3.74 4.25 4.82 4.81 4.70 4.92 4.72 4.35 4.05 3.73 3.33 2.99 2.71 2.54 2.34 2.12 2.00 1.99 2.20 1.89 1.88 2.09 2.23 2.16 2.20 2.44 2.57 2.44 2.51
0.05 0.09 0.17 0.19 0.17 0.31 0.49 0.65 0.79 0.91 0.97 1.09 1.20 1.19 1.23 1.53 1.96 2.38 2.76 3.12 3.50 4.07 4.60 5.08 5.08 4.89 4.71 4.38 3.88 3.46 3.07 2.86 2.62 2.37 2.17 2.09 2.06 2.14 2.40 2.12 2.13 2.12 2.09 2.08 2.25 2.38 2.27 2.12 2.52
0.08 0.13 0.21 0.26 0.20 0.30 0.49 0.74 0.92 0.93 0.91 0.99 1.15 1.33 1.36 1.61 1.91 2.31 2.75 2.99 3.13 3.44 3.87 4.25 4.46 4.09 3.65 3.42 3.31 3.14 3.05 2.68 2.48 2.41 2.41 2.25 2.23 2.23 2.21 2.23 2.09 2.09 2.10 1.95 2.02 2.22 2.09 1.77 2.14
0.10 0.11 0.12 0.18 0.20 0.32 0.53 0.89 1.03 0.87 0.82 0.91 1.04 1.32 1.52 1.56 1.78 2.06 2.52 2.71 2.75 2.87 3.01 3.15 3.27 3.22 3.17 3.21 3.28 3.29 3.30 2.97 2.81 2.71 2.65 2.41 2.35 2.29 2.28 2.09 1.91 1.90 1.85 1.74 1.73 1.90 1.97 1.77 1.74
0.13 0.08 0.06 0.09 0.22 0.49 0.61 1.07 1.19 0.97 0.92 0.98 1.03 1.14 1.24 1.37 1.43 1.56 1.84 2.20 2.17 2.22 2.46 2.85 2.95 2.97 3.11 3.33 3.33 3.26 3.14 3.04 3.02 3.12 3.09 2.99 2.79 2.54 2.32 2.08 1.84 1.69 1.60 1.59 1.43 1.62 1.73 1.78 1.50
0.07 0.05 0.06 0.10 0.22 0.41 0.51 0.79 1.06 1.09 1.03 0.95 0.95 1.04 1.06 1.13 1.17 1.22 1.34 1.76 1.91 1.87 2.10 2.52 2.92 3.11 3.28 3.48 3.53 3.64 3.53 3.35 3.20 3.22 3.22 3.00 2.83 2.61 2.30 2.12 1.92 1.73 1.58 1.48 1.41 1.53 1.47 1.47 1.35
0.05 0.07 0.15 0.23 0.42 0.79 0.63 0.68 1.09 1.09 0.92 0.82 0.73 0.78 0.88 0.83 0.85 0.94 1.11 1.57 1.94 2.02 2.18 2.36 2.65 3.04 3.30 3.38 3.41 3.39 3.30 3.19 2.99 2.86 2.62 2.36 2.28 2.19 2.01 1.87 1.73 1.58 1.54 1.52 1.42 1.40 1.36 1.36 1.37
0.06 0.16 0.53 0.86 1.13 1.17 0.63 0.65 0.97 0.82 0.79 0.70 0.75 0.78 0.68 0.61 0.65 0.69 0.76 0.91 1.07 1.27 1.45 1.62 1.86 2.21 2.52 2.71 2.75 2.64 2.68 2.65 2.41 2.20 2.04 1.78 1.58 1.43 1.37 1.41 1.40 1.34 1.30 1.24 1.25 1.22 1.20 1.25 1.30
0.07 0.11 0.33 0.56 0.71 0.85 0.77 1.08 1.04 0.70 0.61 0.61 0.65 0.60 0.47 0.43 0.43 0.42 0.46 0.50 0.67 0.88 1.14 1.33 1.46 1.59 1.85 2.01 2.05 2.04 2.05 1.99 1.83 1.85 1.66 1.46 1.27 1.14 1.17 1.22 1.21 1.17 1.17 1.13 1.19 1.09 1.03 1.06 1.09
0.06 0.06 0.10 0.17 0.28 0.57 0.88 1.23 1.11 0.74 0.64 0.60 0.48 0.39 0.33 0.27 0.26 0.26 0.29 0.33 0.43 0.64 0.86 1.00 1.17 1.34 1.55 1.75 1.71 1.64 1.53 1.51 1.51 1.49 1.40 1.31 1.28 1.19 1.24 1.20 1.22 1.20 1.20 1.25 1.24 1.12 1.05 1.12 1.10
0.07 0.08 0.09 0.14 0.29 0.51 0.79 1.14 1.24 0.92 0.81 0.64 0.53 0.50 0.33 0.23 0.19 0.20 0.23 0.31 0.34 0.42 0.63 0.83 1.01 1.22 1.33 1.45 1.45 1.35 1.34 1.28 1.27 1.25 1.22 1.20 1.24 1.32 1.36 1.30 1.28 1.26 1.21 1.20 1.17 1.04 1.02 1.13 1.19
0.10 0.10 0.10 0.11 0.15 0.35 0.68 0.92 0.86 0.81 0.70 0.58 0.55 0.48 0.36 0.27 0.19 0.18 0.24 0.31 0.39 0.51 0.68 0.86 0.99 1.11 1.20 1.19 1.20 1.21 1.15 1.16 1.19 1.11 1.08 1.11 1.21 1.28 1.31 1.30 1.28 1.22 1.17 1.17 1.17 1.08 1.14 1.22 1.25
0.11 0.11 0.12 0.16 0.15 0.17 0.35 0.64 0.53 0.49 0.52 0.52 0.47 0.44 0.39 0.33 0.30 0.30 0.33 0.39 0.47 0.56 0.68 0.83 0.99 1.10 1.18 1.24 1.34 1.40 1.41 1.41 1.36 1.21 1.14 1.19 1.26 1.34 1.39 1.39 1.36 1.25 1.25 1.35 1.36 1.28 1.33 1.37 1.34